Location: Newark
(48.6461°N, 4.3644°W)
Time: 00:30:29
(UTC+00:00)

S-56A Canister/Altair - Pass Details

Date: 25 January 2020
Orbit: 633 x 2499 km, 38.9° (Epoch: 23 February)

Event Time Altitude Azimuth Distance (km) Brightness Sun altitude
Rises 01:19:25 0° 259° (W) 2,965 - -58.8°
Reaches altitude 10° 01:22:54 10° 231° (SW) 2,006 - -58.6°
Maximum altitude 01:24:58 13° 203° (SSW) 1,827 - -58.4°
Drops below altitude 10° 01:27:04 10° 175° (S) 2,070 - -58.3°
Sets 01:30:48 0° 147° (SSE) 3,152 - -58.0°
